星链-33819 (STARLINK-33819)

导读

STARLINK-33819是美国SpaceX公司星链(Starlink)星座的成员卫星,于2025年4月7日由美国发射升空,属于低轨通信卫星。它采用平板设计与氪工质霍尔推进器,搭载Ku/Ka波段通信载荷,具备自主避撞能力,旨在为全球提供宽带互联网服务,设计使用寿命约5-7年,退役后会主动离轨再入大气层烧毁。

基本信息
目录编号:
63494
目录名称:
STARLINK-33819
国际标识:
2025-071B
轨道中心:
EARTH
卫星名称:
星链-33819
卫星全名:
星链-33819 (STARLINK-33819)
卫星状态:
在轨 (已飞行515 天)
发射日期:
2025-04-07 UTC
国别 :
美国 (US)
星等 :
--
轨道信息
数据来源 国际轨道数据
星历时间: 2026-09-02T05:54:59+0800
2天前
查看轨道信息
半长轴: 6840.885km
偏心率: 0.0000921
轨道倾角: 53.159°
近地点辐角 86.233°
升交点赤经 36.902°
平近点角 273.878°
近地点: 462.117km
远地点: 463.379km
周期: 93.849分钟
每日圈数: 15.34385
详细信息
固有亮度:
5
最大亮度:
2.5
卫星平台:
Starlink V1.0
覆盖范围:
全球
运营商:
太空探索技术公司
运营商所在国:
美国
制造商(研发单位):
太空探索技术公司
制造商所在国:
美国
使用方式:
暂无
卫星简介
Starlink 计划是 SpaceX 推出的全球卫星互联网项目,通过发射低轨道卫星,为全球尤其是偏远地区提供高速、低延迟的互联网服务。自 2019 年起,Starlink 已部署数千颗卫星,旨在缩小全球数字鸿沟,推动互联网普及。该项目还为军事、航空等行业提供通信支持,带来广泛经济效益。
2D轨道图
3D轨道图
轨道高度分析图
轨道倾角分析图
轨道综合分析图
查看轨道综合分析图
交会数据列表
事件ID 空间交会对象 最接近时刻(TCA) 交会距离 交会风险概率(CRP) 交会风险指数(CRI) 操作
CDM_260903-064706-349406-489222
OBJECT S (64892)
2026-09-03T
06:47:50+0000
0.636 km
远距离
1.121438E-4 高风险 0.76
CDM_260905-130506-349406-982921
2026-09-05T
13:05:37+0000
1.171 km
极远距离
4.480669E-6 低风险 0.48
CDM_260903-200205-696006-349423
2026-09-03T
20:02:46+0000
1.942 km
极远距离
1.717441E-6 低风险 0.4
CDM_260904-030305-111506-349421
2026-09-04T
03:03:02+0000
2.497 km
极远距离
1.570482E-6 低风险 0.39
CDM_260905-002305-186406-349421
2026-09-05T
00:23:26+0000
2.778 km
极远距离
1.167417E-6 低风险 0.36
CDM_260831-124606-349406-840521
2026-08-31T
12:46:45+0000
2.996 km
极远距离
1.120347E-6 低风险 0.36
CDM_260905-104406-349406-982921
2026-09-05T
10:44:56+0000
1.936 km
极远距离
1.02677E-6 低风险 0.35
CDM_260905-091106-349406-982921
2026-09-05T
09:11:08+0000
2.103 km
极远距离
8.563756E-7 极低风险 0.34